Flag for Brazil Weather past 2 weeks in Boa Vista, Roraima, Brazil

Now
79 °F

Clear.


Feels Like: 81 °F
Forecast: 79 / 95 °F
Wind: 5 mph from East

Location: Boa Vista Aeropor-To

Current Time: Sep 16, 2014 at 1:02:45 AM

Latest Report: Sep 16, 2014 at 12:00 AM


Visibility: 10 mi

Pressure: 29.92 "Hg

Humidity: 74%

Dew point: 70 °F

Location of Boa VistaLocation

Historic Weather in Boa Vista — Graph

°F

Boa Vista temperature yesterday

Maximum temperature yesterday: 91 °F (at 1:00 PM)
Minimum temperature yesterday: 75 °F (at 4:00 AM)
Average temperature yesterday: 83 °F

Past Weeks' High & Low Weather Summary

 TemperatureHumidityPressure
High95 °F (Sep 3, 1:00 PM)89% (Sep 1, 12:00 AM)30.01 "Hg (Sep 1, 12:00 AM)
Low73 °F (Sep 10, 6:00 AM)34% (Sep 5, 3:00 PM)29.71 "Hg (Sep 11, 5:00 PM)
Average84 °F64%29.87 "Hg
* Reported Midnight between Aug 31 and Sep 1 — Midnight between Sep 15 and Sep 16, Boa Vista, Weather by CustomWeather, © 2014

Note: Actual official high and low records may vary slightly from our data, if they occured in-between our weather recording intervals... More about our weather records

Advertising

Boa Vista weather history for previous 24 hours

 ConditionsComfort  
Time TempWeatherWind HumidityBarometerVisibility
12:00 AM
Sep 16
79 °FClear.5 mph74%29.92 "Hg10 mi
11:00 PM
Sep 15
81 °FClear.7 mph70%29.89 "Hg10 mi
10:00 PM81 °FClear.6 mph66%29.89 "Hg10 mi
9:00 PM82 °FClear.2 mph62%29.86 "Hg10 mi
8:00 PM82 °FClear.2 mph62%29.86 "Hg10 mi
7:00 PM84 °FPassing clouds.7 mph58%29.83 "HgN/A
6:00 PM90 °FPassing clouds.8 mph46%29.80 "HgN/A
5:00 PM91 °FScattered clouds.8 mph41%29.80 "HgN/A
4:00 PM91 °FScattered clouds.8 mph41%29.80 "HgN/A
3:00 PM91 °FScattered clouds.3 mph41%29.83 "HgN/A
2:00 PM91 °FPartly sunny.8 mph44%29.86 "HgN/A
1:00 PM91 °FScattered clouds.8 mph41%29.89 "HgN/A
12:00 PM90 °FScattered clouds.8 mph46%29.92 "HgN/A
11:00 AM88 °FScattered clouds.13 mph52%29.95 "HgN/A
10:00 AM86 °FPassing clouds.10 mph59%29.95 "HgN/A
9:00 AM82 °FSunny.9 mph70%29.95 "Hg10 mi
8:00 AM81 °FSunny.14 mph70%29.92 "Hg10 mi
7:00 AM77 °FSunny.6 mph79%29.92 "Hg10 mi
6:00 AM75 °FSunny.3 mph83%29.89 "Hg10 mi
5:00 AM75 °FClear.3 mph83%29.89 "Hg10 mi
4:00 AM75 °FClear.2 mph83%29.89 "Hg10 mi
3:00 AM77 °FClear.2 mph79%29.86 "Hg10 mi
2:00 AM77 °FClear.2 mph79%29.89 "Hg10 mi
1:00 AM79 °FClear.5 mph79%29.89 "Hg10 mi
Weather by CustomWeather, © 2014

See weather overviewHow to use our weather pages